Location: Bo?a Wola
(50.4192°N, 19.7966°E)
Time: 20:19:30
(UTC+00:00)

Cosmos 1975 Rocket - Visible Passes

Search period start: 19 September 2024 00:00
Search period end: 29 September 2024 00:00
Orbit: 599 x 629 km, 82.5° (Epoch: 19 September)

Date Brightness Start Highest point End Pass type
(mag) Time Alt. Az. Time Alt. Az. Time Alt. Az.
19 Sep 6.0 21:13:31 10° NNE 21:13:51 11° NNE 21:13:51 11° NNE visible
19 Sep 6.2 22:50:46 10° NNW 22:50:54 11° NNW 22:50:54 11° NNW visible
20 Sep 6.0 21:29:01 10° N 21:29:31 13° N 21:29:31 13° N visible
21 Sep 6.1 21:44:43 10° N 21:45:11 13° N 21:45:11 13° N visible
22 Sep 6.2 22:00:34 10° N 22:00:52 12° N 22:00:52 12° N visible
23 Sep 6.0 20:39:25 10° NNE 20:39:30 10° NNE 20:39:30 10° NNE visible
23 Sep 6.3 22:16:33 10° NNW 22:16:33 10° NNW 22:16:33 10° NNW visible
24 Sep 6.0 20:54:52 10° N 20:55:12 12° N 20:55:12 12° N visible
25 Sep 6.1 21:10:32 10° N 21:10:53 12° N 21:10:53 12° N visible
26 Sep 6.2 21:26:21 10° N 21:26:35 11° N 21:26:35 11° N visible
28 Sep 5.9 20:20:41 10° N 20:20:57 11° N 20:20:57 11° N visible
